Find Starlink 33798

NORAD ID: 63449 Int'l Des: 2025-069 Owner: SPXS Country: US Constellation: starlink operational
LEOCIRCULAR

現在のビュー

3D地球を読み込み中...

About Starlink 33798

Starlink 33798 (NORAD 63449) is a starlink constellation satellite (v2 mini) launched Apr 4, 2025 by SPXS of US. It operates in LEO, CIRCULAR orbit with a mass of 575.00 kg.

次回通過

Passes for default location (London). Set your location on the main map for personalized predictions.

高度履歴

Loading altitude history...

軌道要素

1 63449U 25069S 26264.11989012 .00018862 00000-0 56796-3 0 9990
2 63449 53.1613 307.0558 0001303 98.8937 261.2213 15.34400521 83166
Epoch: Sep 21, 2026 • Age: 10 hours

現在のステータス

高度 462.8 km
遠地点 / 近地点 N/A
速度 7.64 km/s
衛星直下点 22.20°N, 86.75°W
打ち上げ日 Apr 4, 2025
運用期間 1.4 years
タイプ internet

技術仕様

分類 Payload
質量 575.00 kg
乾燥質量 530.00 kg
長さ 0.30 m
スパン 29.00 m
形状 ? Box + pan
製造者 SPXS
バスタイプ Starlink V2MO
フェーズステータス In Orbit
所有者/国 SPXS/US

Most Searched